This is the latest recevied weather packets stored in our database for station/object N8AMF. If no packets are shown the sender has not sent any weather packets the latest 10 day(s).
| Time | Temp. | Humidity | Pressure | Rain* | Wind** | Luminosity | Snow |
|---|---|---|---|---|---|---|---|
| 1778032727 | 9.44° C | 98% | 1008.1 hPa | 3.56 mm | - | 0 W/m² | - |
| 1778032425 | 9.44° C | 98% | 1007.9 hPa | 2.29 mm | - | 0 W/m² | - |
| 1778032121 | 9.44° C | 98% | 1007.9 hPa | 0.51 mm | - | 0 W/m² | - |
| 1778031818 | 9.44° C | 98% | 1007.7 hPa | 0.51 mm | - | 0 W/m² | - |
| 1778031515 | 9.44° C | 98% | 1007.6 hPa | 1.27 mm | - | 0 W/m² | - |
| 1778031212 | 9.44° C | 98% | 1007.7 hPa | 2.29 mm | - | 0 W/m² | - |
| 1778030909 | 9.44° C | 98% | 1007.6 hPa | 3.05 mm | - | 0 W/m² | - |
| 1778030606 | 9.44° C | 98% | 1007.5 hPa | 1.78 mm | - | 0 W/m² | - |
| 1778030303 | 9.44° C | 98% | 1007.6 hPa | 1.27 mm | - | 0 W/m² | - |
| 1778030000 | 9.44° C | 98% | 1007.6 hPa | 1.27 mm | - | 0 W/m² | - |
| 1778029697 | 9.44° C | 98% | 1007.6 hPa | 1.27 mm | - | 0 W/m² | - |
| 1778029395 | 9.44° C | 98% | 1007.3 hPa | 0.51 mm | - | 0 W/m² | - |
| 1778029092 | 9.44° C | 98% | 1007.4 hPa | 0.51 mm | - | 0 W/m² | - |
| 1778028788 | 9.44° C | 98% | 1007.6 hPa | 0.51 mm | - | 0 W/m² | - |
| 1778028484 | 9.44° C | 98% | 1007.6 hPa | 0.51 mm | - | 0 W/m² | - |
| 1778028182 | 9.44° C | 98% | 1007.7 hPa | 0.51 mm | - | 0 W/m² | - |
| 1778027878 | 9.44° C | 98% | 1007.5 hPa | 2.29 mm | - | 0 W/m² | - |
| 1778027575 | 9.44° C | 98% | 1007.7 hPa | 2.29 mm | - | 0 W/m² | - |
| 1778027271 | 9.44° C | 98% | 1007.7 hPa | 1.27 mm | - | 0 W/m² | - |
| 1778026967 | 9.44° C | 98% | 1007.6 hPa | 1.78 mm | - | 1 W/m² | - |
| 1778026663 | 9.44° C | 98% | 1007.6 hPa | 1.78 mm | - | 1 W/m² | - |
| 1778026361 | 9.44° C | 98% | 1007.3 hPa | 1.78 mm | - | 1 W/m² | - |
| 1778026057 | 9.44° C | 98% | 1007.2 hPa | 2.29 mm | - | 3 W/m² | - |
| 1778025755 | 9.44° C | 98% | 1007.2 hPa | 3.05 mm | - | 2 W/m² | - |
| 1778025452 | 9.44° C | 98% | 1007.1 hPa | 3.56 mm | - | 3 W/m² | - |
* Rain latest hour (hover to see other rain measurements)
** Current wind speed in m/s (hover to see current wind gust speed)